Location: Agenbach
(47.2667°N, 11.4500°E)
Time: 19:22:19
(UTC+00:00)

SL-16 R/B - Pass Details

Date: 07 June 2020
Orbit: 842 x 846 km, 71.0° (Epoch: 10 July)

Event Time Altitude Azimuth Distance (km) Brightness Sun altitude
Exits shadow 00:23:01 19° 150° (SSE) 1,917 3.7 -18.2°
Maximum altitude 00:26:02 30° 104° (ESE) 1,472 3.5 -18.1°
Drops below altitude 10° 00:30:53 10° 45° (NE) 2,474 5.6 -17.8°
Sets 00:33:36 0° 35° (NE) 3,415 6.8 -17.6°
